Погода Черновцы

Поиск расширенной информации на нашем сайте:

Полезная информация:

Новости сайта



02.01.2020
Опубликован Долгосрочный прогноз погоды по городам России и ближнего зарубежья на январь 2020 года.
Карты: Прогноз на январь и февраль 2020 года, Сравнение прогнозируемой аномалии приземной температуры воздуха на январь 2020 года по разным моделям.




Погода Черновцы - сегодня

Время (UTC), дата Ветер
(°,м/с) 
Видим.   Явления Облачность Т
(°С)
Тd
(°С)
f(%) Тe
(°С)
Pmin
(гПа)
dP
(гПа)
Po
(мм)
O2
(г/м3)
Тmin Tmax R s Состояние
почвы
09 16.01.21 310 (СЗ) 30000 м    9/9 1080 м 
[Sc]
-11.1 -16.4 65 -16  1020  1.8  741  313           
12 16.01.21 280 (З) 35000 м    8/8 840 м 
[Sc]
-8.9 -15 61 -13  1017.5  -2.1  739  309           
15 16.01.21 320 (СЗ) 25000 м    8/8 360 м 
[St]
-9 -13.3 71 -11  1017.4  -0.1  739  309           
18 16.01.21 тихо ()   14000 м    10/10 1300 м 
[Sc]
-10.2 -13.3 78 -10  1018.1  0.5  740  311    -8.5       
21 16.01.21 тихо ()   14000 м    ясно 
-11.1 -13.4 83 -11  1017.7  -0.5  739  312           
00 17.01.21 тихо ()   14000 м    10/10 800 м 
[Sc]
-11.8 -13.1 90 -12  1016.8  -1  739  312           
03 17.01.21 тихо ()   14000 м    10/10 1500 м 
[Sc]
-11.7 -13.4 87 -12  1016.3  -0.4  738  312           
06 17.01.21 тихо ()   6000 м  дымка  10/10 1000 м 
[Sc]
-11.2 -12.2 92 -11  1016.5  0.2  738  311  -12.9      равномерный
сухой снег
100% 
09 17.01.21 тихо ()   8000 м  дымка  9/9 1050 м 
[Sc]
-7.9 -9.8 86 -8  1016.9  0.8  739  308           
12 17.01.21 300 (СЗ) 13000 м  в посл. час ливневой снег  10/5 500 м кучево-дожд., средняя 
[Cb calv|Ac As]
-5 -8.7 75 -6  1016.2  -0.3  739  304           
15 17.01.21 310 (СЗ) 20000 м  {ливн. осадки}  10/10 1500 м 
[Sc]
-4.4 -7.5 79 -8  1016.5  0.3  739  303           
18 17.01.21 320 (СЗ) 3400 м  слаб. ливневой снег  10/10 200 м кучево-дожд. 
[Cb cap]
-5.2 -5.7 96 -9  1017.6  740  304    -3.9  0.2     
21 17.01.21 340 (С) 2100 м  слаб. ливневой снег  10/10 210 м кучево-дожд. 
[Cb cap]
-7.6 -9 90 -12  1018.7  0.8  740  308           
00 18.01.21 310 (СЗ) 4700 м  слаб. ливневой снег  10/10 360 м кучево-дожд. 
[Cb cap]
-7.5 -8.9 90 -12  1019.1  0.4  741  308           
03 18.01.21 300 (СЗ) 5000 м  слаб. ливневой снег  10/10 400 м кучево-дожд. 
[Cb cap]
-8.8 -10.6 87 -14  1019.6  0.3  741  309           
06 18.01.21 300 (СЗ) 5000 м  слаб. ливневой снег  10/10 300 м кучево-дожд. 
[Cb cap]
-9.6 -11.9 83 -15  1020.6  0.9  742  311  -9.6       
09 18.01.21 310 (СЗ) 1900 м  ливневой снег  10/10 400 м кучево-дожд. 
[Cb cap]
-10 -12.5 82 -16  1022.1  1.4  743  312           
12 18.01.21 310 (СЗ) 18000 м  {ливн. осадки}  6/6 600 м 
[St]
-9.7 -14.3 69 -16  1021.7  -0.4  742  311           
15 18.01.21 320 (СЗ) 20000 м    3/0 верхняя 
[Ci fib]
-10.8 -15 71 -15  1022.7  0.9  743  313           
18 18.01.21 310 (СЗ) 14000 м    ясно 
-11.8 -15.2 76 -16  1023.9  744  314    -9.4  0.2     
21 18.01.21 тихо ()   8000 м  дымка  ясно 
-13.5 -15.8 83 -14  1024.8  0.7  744  317           
00 19.01.21 тихо ()   4900 м  дымка  ясно 
-15.5 -16.5 92 -16  1024.5  -0.6  744  319           
03 19.01.21 тихо ()   5000 м  дымка  ясно 
-16.3 -17.4 91 -16  1024  -0.5  743  320           
06 19.01.21 тихо ()   6000 м  дымка  3/0 средняя 
[Ac trans]
-17.9 -19.4 88 -18  1024  -0.3  743  322  -18      равномерный
сухой снег
100% 
09 19.01.21 100 (В) 5000 м  дымка  8/8 1050 м 
[Sc]
-14 -16 85 -16  1023.4  743  317           
Время (UTC), дата Ветер
(°,м/с) 
Видим.   Явления Облачность Т
(°С)
Тd
(°С)
f(%) Тe
(°С)
Pmin
(гПа)
dP
(гПа)
Po
(мм)
O2
(г/м3)
Тmin Tmax R s Состояние
почвы

Для получения пояснительной информации подведите курсор к названию столбца.

ПОГОДА Черновцы - архив

Всё, что Вы хотите узнать о погоде Черновцы - удобно и подробно!

Выберите нужную дату (начиная с 1 января 2019* года) и нажмите кнопку "Найти".
Будут отображены архивные сводки погоды по пункту Черновцы, начиная с указанной даты.


Отображать данные в формате CSV (для использования в таблицах Excel)


Внимание! Наш архив погоды предназначен исключительно для личного некоммерческого использования в познавательных целях. Если Вам необходимы официальные справки о состоянии погоды (для производственных, юридических, коммерческих и т.п. целей), обращайтесь в органы Росгидромета.

*Примечание: данная дата относится к архиву по метеостанциям СССР (Россия, СНГ, Балтия).
Архив по метеостанциям Зарубежной Европы и Азии (кроме Китая) хранится 10 дней, по другим регионам земного шара (Китай, Африка, Америка, Австралия, Океания) - 1 день.

Черновцы - район местоположения метеостанции


Название, широта, долгота, высота метеостанции:
Черновцы 48.4°ш. 25.9°д. 246 м над ур. моря [Украина]

Дополнительная информация

В oтличие oт бoльшинства пoгoдных сайтoв мы публикуем пoдрoбную метеoинфoрмацию в детальнoм прoфессиoнальнoм фoрмате.

Характеристики температуры и влажнoсти вoздуха измеряются на высoте 2 м в тени вдали oт зданий и деревьев.
Скoрoсть ветра измеряется на высoте 10 м (на урoвне рoста челoвека скoрoсть ветра ниже в 1.5-2 раза). Если метеoстанция нахoдится в гoрoде или в лесу, тo скoрoсть ветра занижена на 2-4 м/с пo сравнению с oткрытым местoм. Скoрoсть ветра над акватoриями крупных рек и oзёр, а также на вершинах хoлмoв на 2-5 м/с выше, чем в oбычных услoвиях.
Атмoсфернoе давление в разных тoчках местнoсти мoжет значительнo oтличаться oт давления на метеoстанции, в зависимoсти oт услoвий рельефа (при пoдъёме на 10 м давление пoнижается примернo на 1 мм рт.ст.).